• In Russia
  • List of Countries
  • For 7 days
  • Water Temperature
  • Satellite Maps
  • Weather Map
  • Weather Widgets
  • user-avatar
    Login

    Hourly Weather Ust-Kyahta

    Today, 19 July, Thursday

    Time Temperature Precipitation Wind Pressure Humidity
    00:00 +19°C° 0 mm 1 mps 703 mmHg 88%
    01:00 +19°C° 0 mm 1 mps 703 mmHg 88%
    02:00 +18°C° 0 mm 1 mps 703 mmHg 89%
    03:00 +18°C° 0 mm 1 mps 703 mmHg 90%
    04:00 +18°C° 0 mm 1 mps 703 mmHg 92%
    05:00 +19°C° 0 mm 1 mps 703 mmHg 87%
    06:00 +21°C° 0 mm 1 mps 703 mmHg 83%
    07:00 +22°C° 0 mm 1 mps 703 mmHg 76%
    08:00 +24°C° 0 mm 1 mps 703 mmHg 70%
    09:00 +25°C° 0 mm 2 mps 703 mmHg 64%
    10:00 +27°C° 0 mm 2 mps 703 mmHg 59%
    11:00 +28°C° 0 mm 2 mps 702 mmHg 55%
    12:00 +29°C° 0 mm 2 mps 702 mmHg 50%
    13:00 +29°C° 0 mm 3 mps 702 mmHg 48%
    14:00 +30°C° 0 mm 3 mps 702 mmHg 46%
    15:00 +30°C° 0 mm 2 mps 701 mmHg 45%
    16:00 +31°C° 0 mm 2 mps 701 mmHg 44%
    17:00 +29°C° 0 mm 2 mps 701 mmHg 49%
    18:00 +28°C° 0 mm 2 mps 701 mmHg 54%
    19:00 +27°C° 0 mm 2 mps 700 mmHg 59%
    20:00 +26°C° 0.1 mm 2 mps 700 mmHg 63%
    21:00 +24°C° 0.1 mm 2 mps 700 mmHg 68%
    22:00 +21°C° 0.1 mm 2 mps 700 mmHg 72%
    23:00 +21°C° 0 mm 2 mps 700 mmHg 74%

    Tomorrow, 20 July, Friday

    Time Temperature Precipitation Wind Pressure Humidity
    00:00 +21°C° 0 mm 2 mps 700 mmHg 76%
    01:00 +22°C° 0 mm 1 mps 699 mmHg 78%
    02:00 +21°C° 0 mm 1 mps 699 mmHg 80%
    03:00 +21°C° 0 mm 1 mps 699 mmHg 83%
    04:00 +20°C° 0 mm 1 mps 699 mmHg 85%
    05:00 +21°C° 0.6 mm 1 mps 699 mmHg 82%
    06:00 +22°C° 0.6 mm 1 mps 699 mmHg 79%
    07:00 +23°C° 0.6 mm 1 mps 699 mmHg 76%
    08:00 +25°C° 0.4 mm 1 mps 699 mmHg 71%
    09:00 +26°C° 0.4 mm 1 mps 699 mmHg 66%
    10:00 +28°C° 0.4 mm 1 mps 699 mmHg 61%
    11:00 +29°C° 0.1 mm 1 mps 699 mmHg 59%
    12:00 +30°C° 0.1 mm 2 mps 698 mmHg 56%
    13:00 +31°C° 0.1 mm 3 mps 698 mmHg 54%
    14:00 +30°C° 0.2 mm 3 mps 698 mmHg 55%
    15:00 +30°C° 0.2 mm 3 mps 698 mmHg 56%
    16:00 +30°C° 0.2 mm 3 mps 698 mmHg 57%
    17:00 +29°C° 0.6 mm 3 mps 698 mmHg 63%
    18:00 +27°C° 0.6 mm 2 mps 698 mmHg 69%
    19:00 +26°C° 0.6 mm 2 mps 698 mmHg 76%
    20:00 +24°C° 0.7 mm 2 mps 698 mmHg 79%
    21:00 +23°C° 0.7 mm 2 mps 698 mmHg 83%
    22:00 +20°C° 0.7 mm 2 mps 698 mmHg 87%
    23:00 +19°C° 0.9 mm 2 mps 698 mmHg 89%

    Day after tomorrow, 21 July, Saturday

    Time Temperature Precipitation Wind Pressure Humidity
    00:00 +19°C° 0.9 mm 2 mps 698 mmHg 90%
    01:00 +18°C° 0.9 mm 3 mps 698 mmHg 91%
    02:00 +18°C° 1.2 mm 2 mps 698 mmHg 91%
    03:00 +18°C° 1.2 mm 2 mps 698 mmHg 91%
    04:00 +17°C° 1.2 mm 2 mps 698 mmHg 91%
    05:00 +17°C° 0.5 mm 2 mps 699 mmHg 89%
    06:00 +17°C° 0.5 mm 2 mps 699 mmHg 87%
    07:00 +18°C° 0.5 mm 2 mps 699 mmHg 85%
    08:00 +18°C° 0.9 mm 2 mps 700 mmHg 84%
    09:00 +18°C° 0.9 mm 2 mps 700 mmHg 83%
    10:00 +19°C° 0.9 mm 2 mps 701 mmHg 82%
    11:00 +19°C° 0.6 mm 2 mps 701 mmHg 79%
    12:00 +20°C° 0.6 mm 2 mps 701 mmHg 75%
    13:00 +20°C° 0.6 mm 2 mps 701 mmHg 72%
    14:00 +21°C° 0.3 mm 3 mps 702 mmHg 68%
    15:00 +22°C° 0.3 mm 3 mps 702 mmHg 65%
    16:00 +22°C° 0.3 mm 4 mps 703 mmHg 61%
    17:00 +21°C° 0.1 mm 3 mps 703 mmHg 64%
    18:00 +20°C° 0.1 mm 3 mps 703 mmHg 67%
    19:00 +19°C° 0.1 mm 3 mps 704 mmHg 70%
    20:00 +18°C° 0 mm 2 mps 704 mmHg 73%
    21:00 +17°C° 0 mm 2 mps 704 mmHg 75%
    22:00 +16°C° 0 mm 2 mps 704 mmHg 77%
    23:00 +15°C° 0 mm 2 mps 704 mmHg 77%

    22 July, Sunday

    Time Temperature Precipitation Wind Pressure Humidity
    00:00 +15°C° 0 mm 2 mps 705 mmHg 78%
    01:00 +15°C° 0 mm 2 mps 705 mmHg 78%
    02:00 +15°C° 0 mm 2 mps 705 mmHg 80%
    03:00 +14°C° 0 mm 2 mps 705 mmHg 82%
    04:00 +13°C° 0 mm 2 mps 705 mmHg 84%
    05:00 +15°C° 0 mm 2 mps 706 mmHg 79%
    06:00 +16°C° 0 mm 2 mps 706 mmHg 74%
    07:00 +18°C° 0 mm 2 mps 707 mmHg 68%
    08:00 +19°C° 0 mm 2 mps 707 mmHg 61%
    09:00 +21°C° 0 mm 2 mps 707 mmHg 55%
    10:00 +23°C° 0 mm 2 mps 707 mmHg 48%
    11:00 +24°C° 0 mm 2 mps 707 mmHg 44%
    12:00 +25°C° 0 mm 2 mps 706 mmHg 41%
    13:00 +27°C° 0 mm 1 mps 706 mmHg 37%
    14:00 +27°C° 0 mm 1 mps 706 mmHg 37%
    15:00 +27°C° 0 mm 1 mps 706 mmHg 36%
    16:00 +27°C° 0 mm 1 mps 706 mmHg 35%
    17:00 +26°C° 0 mm 1 mps 706 mmHg 42%
    18:00 +25°C° 0 mm 1 mps 706 mmHg 49%
    19:00 +23°C° 0 mm 1 mps 706 mmHg 56%
    20:00 +22°C° 0 mm 1 mps 705 mmHg 59%
    21:00 +20°C° 0 mm 1 mps 705 mmHg 61%
    22:00 +18°C° 0 mm 1 mps 705 mmHg 64%
    23:00 +16°C° 0 mm 1 mps 705 mmHg 66%

    23 July, Monday

    Time Temperature Precipitation Wind Pressure Humidity
    00:00 +16°C° 0 mm 1 mps 705 mmHg 67%
    01:00 +15°C° 0 mm 1 mps 705 mmHg 69%
    02:00 +15°C° 0 mm 1 mps 705 mmHg 70%
    03:00 +14°C° 0 mm 1 mps 705 mmHg 71%
    04:00 +14°C° 0 mm 1 mps 704 mmHg 72%
    05:00 +15°C° 0 mm 1 mps 704 mmHg 68%
    06:00 +18°C° 0 mm 1 mps 704 mmHg 64%
    07:00 +20°C° 0 mm 1 mps 705 mmHg 60%
    08:00 +21°C° 0 mm 1 mps 705 mmHg 55%
    09:00 +23°C° 0 mm 2 mps 705 mmHg 50%
    10:00 +25°C° 0 mm 2 mps 705 mmHg 45%
    11:00 +26°C° 0 mm 2 mps 704 mmHg 43%
    12:00 +27°C° 0 mm 2 mps 704 mmHg 40%
    13:00 +28°C° 0 mm 2 mps 703 mmHg 37%
    14:00 +29°C° 0 mm 2 mps 703 mmHg 37%
    15:00 +29°C° 0 mm 2 mps 703 mmHg 36%
    16:00 +30°C° 0 mm 2 mps 702 mmHg 36%
    17:00 +28°C° 0 mm 2 mps 702 mmHg 42%
    18:00 +27°C° 0 mm 2 mps 702 mmHg 48%
    19:00 +26°C° 0 mm 2 mps 702 mmHg 53%
    20:00 +24°C° 0 mm 2 mps 702 mmHg 57%
    21:00 +21°C° 0 mm 2 mps 702 mmHg 61%
    22:00 +19°C° 0 mm 2 mps 702 mmHg 65%
    23:00 +19°C° 0 mm 2 mps 702 mmHg 66%

    24 July, Tuesday

    Time Temperature Precipitation Wind Pressure Humidity
    00:00 +18°C° 0 mm 2 mps 702 mmHg 68%
    01:00 +17°C° 0 mm 2 mps 702 mmHg 70%
    02:00 +17°C° 0 mm 2 mps 702 mmHg 71%
    03:00 +16°C° 0 mm 2 mps 702 mmHg 73%
    04:00 +16°C° 0 mm 1 mps 701 mmHg 74%
    05:00 +18°C° 0 mm 1 mps 702 mmHg 68%
    06:00 +20°C° 0 mm 1 mps 702 mmHg 62%
    07:00 +22°C° 0 mm 1 mps 703 mmHg 57%
    08:00 +23°C° 0 mm 2 mps 703 mmHg 51%
    09:00 +25°C° 0 mm 2 mps 703 mmHg 44%
    10:00 +27°C° 0 mm 2 mps 702 mmHg 38%
    11:00 +28°C° 0 mm 2 mps 702 mmHg 36%
    12:00 +29°C° 0 mm 2 mps 702 mmHg 34%
    13:00 +31°C° 0 mm 2 mps 702 mmHg 32%
    14:00 +31°C° 0 mm 2 mps 702 mmHg 31%
    15:00 +31°C° 0 mm 2 mps 701 mmHg 31%
    16:00 +31°C° 0 mm 2 mps 701 mmHg 31%
    17:00 +30°C° 0 mm 2 mps 701 mmHg 36%
    18:00 +28°C° 0 mm 1 mps 701 mmHg 42%
    19:00 +27°C° 0 mm 1 mps 701 mmHg 48%
    20:00 +25°C° 0 mm 1 mps 701 mmHg 52%
    21:00 +23°C° 0 mm 1 mps 701 mmHg 55%
    22:00 +21°C° 0 mm 1 mps 701 mmHg 59%
    23:00 +20°C° 0 mm 1 mps 701 mmHg 61%
    Show more